Location: Unspecified
(0.0000°N, 0.0000°E)
Time: 08:52:10
(UTC+00:00)

ACS3 Solar Sail - Pass Details

Date: 11 November 2025
Orbit: 910 x 992 km, 97.3° (Epoch: 12 November)

Event Time Altitude Azimuth Distance (km) Brightness Sun altitude
Exits shadow 03:19:37 14° 195° (SSW) 2,477 3.9 -34.2°
Drops below altitude 10° 03:20:21 10° 195° (SSW) 2,754 4.2 -34.0°
Sets 03:22:51 0° 193° (SSW) 3,706 4.9 -33.4°
